Location: ???????
(55.4362°N, 38.1183°E)
Time: 18:14:50
(UTC+00:00)

Cosmos 2278 Rocket - Pass Details

Date: 25 October 2021
Orbit: 841 x 845 km, 71.0° (Epoch: 28 November)

Event Time Altitude Azimuth Distance (km) Brightness Sun altitude
Rises 19:15:16 0° 318° (NW) 3,417 6.2 -41.4°
Reaches altitude 10° 19:18:45 10° 297° (WNW) 2,475 5.2 -41.7°
Enters shadow 19:20:15 14° 282° (WNW) 2,222 4.8 -41.8°
